Regional Weather Roundup
Issued by NWS

Home | Current Version | Previous Version | Graphics & Text | Print | Product List | Glossary On
Versions: 1 2 3 4 5 6 7 8 9 10 11 12 13 14 15 16 17 18 19 20 21 22 23 24 25 26 27 28 29 30 31 32 33 34 35 36 37 38 39 40 41 42 43 44 45 46 47 48 49 50
000
ASUS43 KLMK 290002
RWRKY
KENTUCKY REGIONAL WEATHER ROUNDUP
NATIONAL WEATHER SERVICE LOUISVILLE KY
800 PM EDT THU APR 28 2016

NOTE "FAIR" INDICATES FEW OR NO CLOUDS BELOW 12,000 FEET
WITH NO SIGNIFICANT WEATHER AND/OR OBSTRUCTIONS TO VISIBILITY.

KYZ001>023-026-027-061>063-070>075-290100-
WESTERN AND SOUTH CENTRAL KENTUCKY

CITY           SKY/WX    TMP DP  RH WIND       PRES   REMARKS
PADUCAH        CLEAR     71  50  47 W6        29.92R
HENDERSON      CLEAR     73  48  40 W8        29.90R
OWENSBORO      CLEAR     74  54  49 W9        29.91R
HOPKINSVILLE   CLEAR     75  53  46 W8        29.93R
BOWLING GREEN  CLEAR     76  50  40 W9        29.91R
GLASGOW        NOT AVBL
$$

KYZ024-025-028>034-038-045-046-053-290100-
NORTH CENTRAL KENTUCKY

CITY           SKY/WX    TMP DP  RH WIND       PRES   REMARKS
LOUISVILLE/SDF PTCLDY    74  46  36 W12       29.89R
LOUISVILLE/LOU CLEAR     74  46  36 W13G20    29.89R
FORT KNOX      CLEAR     72  51  48 W8        29.89R
$$

KYZ035>037-039>044-047>052-055>060-089>105-290100-
NORTHEAST KENTUCKY

CITY           SKY/WX    TMP DP  RH WIND       PRES   REMARKS
LEXINGTON      CLEAR     73  50  44 W9        29.88R
COVINGTON      PTCLDY    71  47  42 W15G25    29.86R
FRANKFORT      CLEAR     74  45  35 W8        29.87R
$$

KYZ054-064>069-076>088-106>120-290100-
SOUTHEAST KENTUCKY

CITY           SKY/WX    TMP DP  RH WIND       PRES   REMARKS
JACKSON        CLEAR     70  58  65 W6        29.89R
LONDON         CLEAR     73  59  61 W6        29.90R
SOMERSET       NOT AVBL
MIDDLESBORO    PTCLDY    77  52  41 W3        29.90R
MONTICELLO     CLEAR     75  56  51 W8        29.92R
$$




USA.gov is the U.S. government's official web portal to all federal, state and local government web resources and services.